User: anonymous   Login
Location: Le Petit-Vavre
(46.5081°N, 1.5239°E)
Time: 12:34:28
(UTC+00:00)
Language:

CSL-04 Rocket - Orbit

View from above orbital plane
View from above orbital plane
View from above satellite
View from above satellite

Ground track
Ground track

The orbit data is extracted from the following two-line orbital elements,

1 25732U 99025C   21138.07681587 -.00000016  00000-0  14227-4 0  9999
2 25732  98.9046 174.4617 0036888 338.0287  75.6810 14.17692534139373
Epoch (UTC): 18 May 2021 01:50:36
Eccentricity: 0.0036888
inclination: 98.9046°
perigee height: 806 km
apogee height: 860 km
right ascension of ascending node: 174.4617°
argument of perigee: 338.0287°
revolutions per day: 14.17692534
mean anomaly at epoch: 75.6810°
orbit number at epoch: 13937

The dashed part of the orbit path shows where the satellite is in the earth's shadow,  

DLR